CZ-3B DEB, 40185

Orbit data source: Space-Track

CZ-3B DEB, 40185 is space debris in HEO originally from a launch on Mon, 19 Dec 2011 UTC launched from the Xichang Space Center, China (XSC). Debris objects in space refer to the collection of defunct objects orbiting the Earth. Examples of debris include non-operational satellites, rocket bodies, and fragments generated from explosions, collisions, or faulty payload assembly.

Loading next visibility...
Identifier
40185, 2011-077J
Orbit
HEO
Country
Flag of CNCN / PRC
Related business
Manufacturer
CALT
Mission
Spacecraft
Bus & Motor
Unknown
Mass
Unknown
Launch date (UTC)
2011-12-19 (15 years ago)
Launch vehicle
Unknown
Launch site
Xichang Space Center, China (XSC)
Object type
Payload
Rocket body
Debris
Shape & HBR
Unknown shape, 0.6 m
Radar Cross Section
Medium (>0.1 m² and <1 m²)

Expand to show TLE details & history
Last TLE update: 6 days ago

TLE from 6 days ago
0 CZ-3B DEB
1 40185U 11077J   26167.18658861  .00000312  00000-0  51716-3 0  9998
2 40185  24.7547 239.3868 7486412 260.4277  16.3230  1.92994749 85314
Epoch: 2026-06-16T04:28Z
TLE epoch observation values (Epoch: 2026-06-16T04:28:41.255Z)
Latitude
0.00003°
Longitude
-92.0432°
Altitude
7,389.708 km
Speed
6.578 km/s
True Right ascension
15h 58m 21s
True Declination
0° 00' 00"
Sunlit
Object was in daylight at epoch
Visualization orbit readout
Latitude
Unknown
Longitude
Unknown
Altitude
Unknown
Speed
Unknown
Apparent Right ascension
Unknown
Apparent Declination
Unknown
Sunlit
N/A
Visualization observer readout
Local Sidereal Time
21:58:25
Azimuth
Unknown
Elevation
Unknown
Doppler factor
Unknown
Orbital elements
Apogee altitude
41,280.063 km
Perigee altitude
472.501 km
Semi-major axis
27,254.419 km
Eccentricity
0.74864
Inclination
24.7547°
RAAN
239.3868°
Arg. of periapsis
260.4277°
True anomaly
99.69424°
Mean anomaly
16.323°
Eccentric anomaly
48.39809°
Mean motion
0.48238 °/min
Orbital period
746.3 mins
BSTAR
0.00051716
Loading maneuver chart data...
Computing Atmospheric mass density...
Loading historical data...
Loading historical data...
Loading historical data...
Loading historical data...
Loading historical data...
Loading historical data...
Loading historical data...

Documentation

Showing up to 5 results
|